Volver al catálogo

FENGYUN 1C DEB

LostPO
NORAD 37685·DEBRIS·🇨🇳 China

Lanzado May 10, 1999 desde Taiyuan Satellite Launch Center

Loading…

Próximos Pases (próximas 24 horas)

TLE

ObsoletoSource: Space-Track

Época: Oct 12, 2024, 14:47 UTC

1 37685U 99025ELA 24286.61632036  .00016869  00000-0  70398-2 0  9992
2 37685  98.0056 218.9256 0162799 244.7787 241.9840 14.19324867750763

Sigue FENGYUN 1C DEB en tiempo real con AllMySat

Download on the App Store